Regional Weather Roundup
Issued by NWS

Home | Current Version | Previous Version | Graphics & Text | Print | Product List | Glossary On
Versions: 1 2 3 4 5 6 7 8 9 10 11 12 13 14 15 16 17 18 19 20 21 22 23 24 25 26 27 28 29 30 31 32 33 34 35 36 37 38 39 40 41 42 43 44 45 46 47 48 49 50
000
ASUS45 KABQ 030801
RWRNM
NEW MEXICO REGIONAL WEATHER ROUNDUP
NATIONAL WEATHER SERVICE ALBUQUERQUE NM
200 AM MDT MON AUG 03 2015

NOTE: "FAIR" MEANS FEW OR NO CLOUDS BELOW 12,000 FEET AGL WITH NO
       SIGNIFICANT WEATHER OR OBSTRUCTIONS TO VISION.

      THIS PRODUCT IS RELEASED AS TWO VERSIONS.  ONE VERSION NEAR
      THE TOP OF THE HOUR CONTAINING PRELIMINARY DATA FROM ALBUQUERQUE
      AND OTHER STATIONS.  A FINAL VERSION WITH ADDITIONAL DATA IS
      ISSUED ABOUT 10 MINUTES AFTER THE HOUR.

NMZ501-503-504-510>518-030900-
NORTHWEST PLATEAU/NORTHCENTRAL MOUNTAINS

CITY           SKY/WX    TMP DP  RH WIND       PRES   REMARKS
FARMINGTON     PTCLDY    61  58  90 S3        30.16R
SANTA FE       LGT RAIN  62  58  86 NW3       30.23R
TAOS           CLOUDY    57  46  67 N6        30.27S
ANGEL FIRE     CLOUDY    51  50  95 CALM      30.35F

$$
NMZ402-403-502-505>509-030900-
WESTCENTRAL MOUNTAINS/SOUTHWEST MOUNTAINS

CITY           SKY/WX    TMP DP  RH WIND       PRES   REMARKS
GALLUP         CLEAR     55  53  93 CALM      30.23S
SILVER CITY      N/A     66  57  72 NW6       30.17S

$$
NMZ407-409-411-412-030900-
SOUTHERN DESERTS

CITY           SKY/WX    TMP DP  RH WIND       PRES   REMARKS
DEMING         MOCLDY    72  62  71 W6        30.07F
HOLLOMAN AFB   MOCLDY    72  63  73 SE10      30.04F
ALAMOGORDO     MOCLDY    72  63  73 S3        30.07F
T OR C         CLOUDY    73  57  57 N8        30.11R

$$
NMZ519>523-030900-
CENTRAL VALLEYS/CENTRAL HIGHLANDS

CITY           SKY/WX    TMP DP  RH WIND       PRES   REMARKS
ALBUQUERQUE    LGT RAIN  67  62  84 N10       30.18F
DOUBLE EAGLE   CLOUDY    63  60  91 N3        30.21F
MORIARTY ARPT    N/A     64  58  79 W3        30.23S
CLINES CORNERS CLOUDY    61  55  81 CALM      30.24S
BELEN          LGT RAIN  68  58  71 N8        30.16F
SOCORRO        NOT AVBL

$$
NMZ524>526-539-540-030900-
SOUTHCENTRAL MOUNTAINS

CITY           SKY/WX    TMP DP  RH WIND       PRES   REMARKS
RUIDOSO          N/A    N/A N/A N/A MISG        N/A

$$
NMZ527>531-030900-
NORTHEAST HIGHLANDS/NORTHEAST PLAINS

CITY           SKY/WX    TMP DP  RH WIND       PRES   REMARKS
RATON          NOT AVBL
CLAYTON        MOCLDY    67  61  81 S9        30.12R

$$
NMZ532>537-030900-
EASTCENTRAL PLAINS

CITY           SKY/WX    TMP DP  RH WIND       PRES   REMARKS
TUCUMCARI      PTCLDY    68  65  90 CALM      30.03S
CANNON AFB     MOCLDY    68  65  88 SE10      30.05F
CLOVIS AIRPORT MOCLDY    66  63  88 SE10      30.07F

$$
NMZ028-029-538-030900-
SOUTHEAST PLAINS

CITY           SKY/WX    TMP DP  RH WIND       PRES   REMARKS
ROSWELL        PTCLDY    73  59  61 SW6       29.99F
ARTESIA        MOCLDY    79  61  53 SW13      30.01R
CARLSBAD       MOCLDY    83  58  42 S7        29.97S
HOBBS            N/A    N/A N/A N/A MISG        N/A


$$


USA.gov is the U.S. government's official web portal to all federal, state and local government web resources and services.